Regional Weather Roundup
Issued by NWS Upton, NY

Current Version | Previous Version | Graphics & Text | Print | Product List | Glossary Off
Versions: 1 2 3 4 5 6 7 8 9 10 11 12 13 14 15 16 17 18 19 20 21 22 23 24 25 26 27 28 29 30 31 32 33 34 35 36 37 38 39 40 41 42 43 44 45 46 47 48 49

000
ASUS41 KOKX 281905
RWROKX

REGIONAL WEATHER ROUNDUP
NATIONAL WEATHER SERVICE NEW YORK NY
200 PM EST WED JAN 28 2015

NOTE: "FAIR" INDICATES FEW OR NO CLOUDS BELOW 12,000 FEET WITH NO
SIGNIFICANT WEATHER AND/OR OBSTRUCTIONS TO VISIBILITY.

NYZ071-072-176-178-NJZ106-104-282000-
NEW YORK CITY METRO AREA


CITY           SKY/WX    TMP DP  RH WIND       PRES   REMARKS
CENTRAL PARK   SUNNY     31   8  38 VRB7      30.08R WCI  24
LAGUARDIA APRT MOSUNNY   31  10  41 N13       30.05S WCI  21
KENNEDY INTL   MOSUNNY   31  10  41 NW16      30.06S WCI  20
NEWARK/LIBERTY MOSUNNY   31   9  39 NW15      30.07S WCI  20
BRNX BOT. GARD   N/A    N/A N/A N/A W8        30.07R
TETERBORO      SUNNY     31   7  36 NW14      30.06S WCI  21
$$

NYZ177-179-078>081-282000-
LONG ISLAND NEW YORK

CITY           SKY/WX    TMP DP  RH WIND       PRES   REMARKS
FARMINGDALE    SUNNY     30  10  43 N13       30.04S WCI  20
ISLIP          MOSUNNY   27  11  51 N22G33    30.02R WCI  13
SHIRLEY        MOSUNNY   25   9  50 NW18G28   30.04R WCI  11
WESTHAMPTON    MOSUNNY   24  10  55 N21G30    30.03R WCI   9
MONTAUK POINT    N/A     24   9  52 N13       30.01R WCI  12
$$

NYZ052-065-067-282000-
HUDSON VALLEY

CITY           SKY/WX    TMP DP  RH WIND       PRES   REMARKS
WHITE PLAINS   SUNNY     29   9  43 NW18G25   30.02R WCI  16
NEWBURGH       SUNNY     30  12  47 N12       30.05S WCI  21
MONTGOMERY     SUNNY     32   9  38 NE7       30.04R WCI  26
POUGHKEEPSIE   SUNNY     28   7  41 NW8       30.07R WCI  20
ALBANY         MOSUNNY   21   1  41 N12       30.13S WCI   9
$$

NJZ001-105-106-008-010-013-015-019>022-104-282000-
NEW JERSEY

CITY           SKY/WX    TMP DP  RH WIND       PRES   REMARKS
NEWARK/LIBERTY MOSUNNY   31   9  39 NW15      30.07S WCI  20
TETERBORO      SUNNY     31   7  36 NW14      30.06S WCI  21
CALDWELL       SUNNY     31   5  33 NW10G22   30.07S WCI  22
MORRISTOWN     SUNNY     32   7  34 N12G26    30.07F WCI  23
SOMERVILLE     SUNNY     33   9  36 NW14G22   30.07S WCI  23
SUSSEX         MIX PCPN  29   5  36 N8G21     30.06F WCI  21
ANDOVER          N/A     30   6  36 N10G23    30.06S WCI  21
TRENTON        SUNNY     31   7  36 NW13G22   30.09R WCI  21
MILLVILLE      SUNNY     33   3  28 NW17G29   30.12R WCI  22
ATLANTIC CITY  SUNNY     32  10  40 NW21G26   30.09R WCI  20
WRIGHTSTOWN    SUNNY     30   8  39 W14G24    30.07R WCI  20
TOMS RIVER     SUNNY     30  10  43 NW15G23   30.08S WCI  19
BELMAR         SUNNY     30   9  40 NW16      30.06S WCI  19
$$

PAZ047>061-062-071-282000-
EASTERN PENNSYLVANIA

CITY           SKY/WX    TMP DP  RH WIND       PRES   REMARKS
PHILADELPHIA   SUNNY     33   2  26 NW13G25   30.14S WCI  24
ALLENTOWN      SUNNY     30   4  33 NW14G22   30.12R WCI  19
SCRANTON       SUNNY     27   5  39 NW9       30.12S WCI  18
$$

CTZ002-004>006-009-010-012-RIZ004-006-007-MAZ004-011-015-282000-
SOUTHERN NEW ENGLAND
 IN CT

CITY           SKY/WX    TMP DP  RH WIND       PRES   REMARKS
BRADLEY INTL   MOSUNNY   25   8  48 NE13      30.01S WCI  14
HARTFORD       SUNNY     25   9  50 N12G22    30.03S WCI  14
DANBURY        SUNNY     27   6  41 NW12      30.04R WCI  17
WTRBRY/OXFORD  MOSUNNY   25   7  46 N14       30.00R WCI  13
BRIDGEPORT     SUNNY     27   8  44 NW16      30.03F WCI  15
MERIDEN        SUNNY     26   8  46 NW12      30.03R WCI  16
NEW HAVEN      SUNNY     26   9  48 N13G20    30.03S WCI  15
CHESTER        FAIR      27  10  50 N18G26    29.99R WCI  13
GROTON         MOSUNNY   24   9  52 N14G21    30.00R WCI  12
WILLIMANTIC    MOSUNNY   25   8  48 N17G25    30.00R WCI  12

 IN RI

CITY           SKY/WX    TMP DP  RH WIND       PRES   REMARKS
PROVIDENCE     PTSUNNY   23   6  48 N10       29.99R WCI  12
BLOCK ISLAND   MOSUNNY   21   7  53 NW9G16    29.97R WCI  11
WESTERLY       MOSUNNY   24   6  46 N12       30.00R WCI  13

 IN MA

CITY           SKY/WX    TMP DP  RH WIND       PRES   REMARKS
BOSTON         PTSUNNY   21   7  54 NW13      29.99R WCI   9
WORCESTER      PTSUNNY   20   7  57 NW15G25   29.93R WCI   6
WESTFIELD      MOSUNNY   24   8  50 NE7       30.01R HAZE    WCI  16
PROVINCETOWN   CLOUDY    25  14  63 NW14G23   29.94S WCI  13
NANTUCKET      CLOUDY    24  15  68 NW15      29.95R WCI  11
$$

ANZ330-335-338-340-345-350-353-355-282000-
COASTAL MARINE OBSERVATIONS


STATION/POSITION TIME  SKY/WX   TEMP    WIND        PRES    VSBY  WAVE
                                AIR SEA DIR/SP/G                  HT/PER
                 (UTC)          (F)     (DEG/KT/KT) (MB)    (MI)  (FT/S)
NY HARB ENTRANCE 1900            30 40  320/ 16/ 21 1017.1          3/13
4S FIRE IS       NOT AVBL
20S FIRE ISLAND  1800               42              1017.3          4/ 4
23SW MTP         1900                                 N/A           4/11
HUDSON CANYON    NOT AVBL
EXECUTION ROCKS  1900            35 34  320/ 14/ 17   N/A
WESTERN LI SOUND 1900            30     340/ 10/ 14   N/A           1
CENTRAL LI SOUND 1800            23 35  330/ 19/ 23   N/A           1/ 3
EASTERN LI SOUND NOT AVBL
ROBBINS REEF     1900            30     320/ 12/ 16 1016.9
$$


>>>>>>>>>>>>>>>>>>>>>>>>>>>> KEY <<<<<<<<<<<<<<<<<<<<<<<<<<<
>                                                          <
>     SKY/WX - SKY CONDITION/PRESENT WEATHER               <
>     TMP    - TEMPERATURE IN FAHRENHEIT                   <
>     DP     - DEWPOINT IN FAHRENHEIT                      <
>     RH     - RELATIVE HUMIDITY IN PERCENT                <
>     WIND   - DIRECTION AND SPEED IN MPH                  <
>     PRES   - MEAN SEA LEVEL PRESSURE IN INCHES OF HG     <
>     WCI    - WIND CHILL INDEX                            <
>     VSB    - VISIBILITY IN MILES                         <
>     HX     - HEAT INDEX                                  <
>     TC     - TEMPERATURE IN CELSIUS                      <
>     VRB    - VARIABLE WIND DIRECTION                     <
>                                                          <
>>>>>>>>>>>>>>>>>>>>>>>>>>>> KEY <<<<<<<<<<<<<<<<<<<<<<<<<<<





USA.gov is the U.S. government's official web portal to all federal, state and local government web resources and services.